BAW248 SBGL-EGLL

Flight info

Callsign BAW248
Flight time N/A
Altitude 35000
Route UTMIP1A IMBAP UZ1 ESNIN UN866 USATU/N0483F370 UN866 DEKON/N0479F380 UN866 AMDOL/N0474F390 UN866 TENPA N866 GOMER/N0473F400 N981 BIMBO/N0401F240 UN729 AGADO/N0482F400 DCT KORUL DCT FEJAC DCT JSY/N0450F340 DCT REVTU UP87 ROXOG ROXOG1H
Aircraft B772/H-SDE1E3FGHIJ3J4J5J6M1M2P2RWXYZ/LB1D1

Departure

Time 2026-05-03 21:41
Airport Rio Galeão – Tom Jobim International Airport (SBGL)

Arrival

Time N/A
Airport London Heathrow Airport (EGLL)
Time Latitude Longitude Altitude Speed Heading
2026-05-03 21:06 -22.81814 -43.24092 30 ft 0 kts 35°
2026-05-03 21:27 -22.81828 -43.24104 32 ft 4 kts 36°
2026-05-03 21:27 -22.81850 -43.24120 32 ft 4 kts 32°
2026-05-03 21:28 -22.81874 -43.24132 32 ft 4 kts
2026-05-03 21:28 -22.81886 -43.24129 32 ft 1 kts 290°
2026-05-03 21:28 -22.81885 -43.24150 32 ft 4 kts 263°
2026-05-03 21:28 -22.81898 -43.24174 31 ft 4 kts 231°
2026-05-03 21:29 -22.81916 -43.24191 30 ft 4 kts 216°
2026-05-03 21:29 -22.81938 -43.24208 30 ft 4 kts 216°
2026-05-03 21:29 -22.81960 -43.24225 28 ft 4 kts 216°
2026-05-03 21:29 -22.81982 -43.24242 29 ft 3 kts 216°
2026-05-03 21:30 -22.81985 -43.24244 29 ft 0 kts 216°
2026-05-03 21:32 -22.81997 -43.24253 29 ft 6 kts 216°
2026-05-03 21:32 -22.82032 -43.24281 29 ft 6 kts 216°
2026-05-03 21:32 -22.82076 -43.24321 29 ft 9 kts 237°
2026-05-03 21:32 -22.82067 -43.24388 28 ft 9 kts 301°
2026-05-03 21:33 -22.82031 -43.24447 28 ft 9 kts 304°
2026-05-03 21:33 -22.81994 -43.24506 28 ft 9 kts 304°
2026-05-03 21:33 -22.81956 -43.24564 28 ft 10 kts 306°
2026-05-03 21:33 -22.81931 -43.24629 25 ft 10 kts 270°
2026-05-03 21:34 -22.81927 -43.24701 25 ft 10 kts 288°
2026-05-03 21:34 -22.81890 -43.24762 31 ft 11 kts 306°
2026-05-03 21:34 -22.81834 -43.24846 27 ft 15 kts 306°
2026-05-03 21:34 -22.81773 -43.24936 28 ft 15 kts 306°
2026-05-03 21:35 -22.81710 -43.25032 28 ft 17 kts 305°
2026-05-03 21:35 -22.81643 -43.25134 26 ft 17 kts 306°
2026-05-03 21:35 -22.81575 -43.25236 28 ft 17 kts 306°
2026-05-03 21:35 -22.81508 -43.25338 28 ft 17 kts 306°
2026-05-03 21:36 -22.81440 -43.25440 28 ft 17 kts 306°
2026-05-03 21:36 -22.81373 -43.25542 29 ft 17 kts 305°
2026-05-03 21:36 -22.81300 -43.25652 29 ft 18 kts 306°
2026-05-03 21:36 -22.81226 -43.25765 31 ft 18 kts 306°
2026-05-03 21:37 -22.81152 -43.25877 30 ft 18 kts 306°
2026-05-03 21:37 -22.81055 -43.25905 27 ft 15 kts 30°
2026-05-03 21:37 -22.80966 -43.25837 27 ft 18 kts 36°
2026-05-03 21:37 -22.80867 -43.25760 27 ft 18 kts 35°
2026-05-03 21:38 -22.80766 -43.25684 32 ft 18 kts 35°
2026-05-03 21:38 -22.80666 -43.25608 33 ft 18 kts 35°
2026-05-03 21:38 -22.80570 -43.25538 34 ft 13 kts 21°
2026-05-03 21:38 -22.80484 -43.25565 34 ft 13 kts 326°
2026-05-03 21:39 -22.80403 -43.25612 33 ft 13 kts 352°
2026-05-03 21:39 -22.80320 -43.25570 31 ft 13 kts 37°
2026-05-03 21:39 -22.80247 -43.25509 29 ft 13 kts 38°
2026-05-03 21:39 -22.80177 -43.25443 29 ft 13 kts 53°
2026-05-03 21:40 -22.80153 -43.25371 30 ft 15 kts 73°
2026-05-03 21:40 -22.80075 -43.25073 31 ft 71 kts 74°
2026-05-03 21:40 -22.79889 -43.24349 35 ft 127 kts 74°
2026-05-03 21:40 -22.79605 -43.23251 42 ft 173 kts 74°
2026-05-03 21:41 -22.79285 -43.21964 525 ft 176 kts 76°
2026-05-03 21:41 -22.78992 -43.20656 1090 ft 180 kts 78°
2026-05-03 21:41 -22.78711 -43.19306 1655 ft 183 kts 79°
2026-05-03 21:41 -22.78413 -43.17890 1844 ft 202 kts 79°
2026-05-03 21:42 -22.78082 -43.16343 2004 ft 220 kts 79°
2026-05-03 21:42 -22.77719 -43.14662 2132 ft 238 kts 79°
2026-05-03 21:42 -22.77329 -43.12846 2380 ft 254 kts 79°
2026-05-03 21:42 -22.76922 -43.10953 2835 ft 261 kts 79°
2026-05-03 21:43 -22.76511 -43.09023 3382 ft 265 kts 79°
2026-05-03 21:43 -22.76100 -43.07094 3967 ft 266 kts 79°
2026-05-03 21:43 -22.75678 -43.05105 4542 ft 269 kts 79°
2026-05-03 21:43 -22.75257 -43.03117 5088 ft 272 kts 79°
2026-05-03 21:44 -22.74610 -43.01197 5407 ft 278 kts 55°
2026-05-03 21:44 -22.73110 -42.99881 5909 ft 282 kts 22°
2026-05-03 21:44 -22.71192 -42.99547 6451 ft 283 kts 352°
2026-05-03 21:44 -22.69340 -43.00213 6913 ft 281 kts 329°
2026-05-03 21:45 -22.67590 -43.01170 7186 ft 284 kts 346°
2026-05-03 21:45 -22.65642 -43.01117 7528 ft 286 kts 16°
2026-05-03 21:45 -22.63754 -43.00432 7919 ft 288 kts 18°
2026-05-03 21:45 -22.61832 -42.99791 8406 ft 290 kts 15°
2026-05-03 21:46 -22.59880 -42.99204 8950 ft 289 kts 14°
2026-05-03 21:46 -22.57931 -42.98658 9453 ft 291 kts 13°
2026-05-03 21:46 -22.55957 -42.98130 9958 ft 292 kts 12°
2026-05-03 21:46 -22.53966 -42.97614 10374 ft 296 kts 12°
2026-05-03 21:47 -22.51905 -42.97091 10485 ft 313 kts 11°
2026-05-03 21:47 -22.49729 -42.96545 10598 ft 330 kts 11°
2026-05-03 21:47 -22.47437 -42.95983 10735 ft 346 kts 11°
2026-05-03 21:47 -22.45032 -42.95382 11008 ft 360 kts 12°
2026-05-03 21:48 -22.42556 -42.94763 11422 ft 368 kts 11°
2026-05-03 21:48 -22.40039 -42.94140 12013 ft 373 kts 11°
2026-05-03 21:48 -22.37491 -42.93510 12661 ft 378 kts 11°
2026-05-03 21:48 -22.34907 -42.92872 13255 ft 385 kts 10°
2026-05-03 21:49 -22.32295 -42.92308 13842 ft 380 kts
2026-05-03 21:49 -22.29695 -42.92498 14106 ft 381 kts 346°
2026-05-03 21:49 -22.27065 -42.93068 14544 ft 389 kts 347°
2026-05-03 21:49 -22.24400 -42.93563 15232 ft 390 kts 348°
2026-05-03 21:50 -22.21704 -42.94015 15910 ft 392 kts 348°
2026-05-03 21:50 -22.18993 -42.94460 16507 ft 395 kts 348°
2026-05-03 21:50 -22.16238 -42.94529 16895 ft 406 kts
2026-05-03 21:50 -22.13540 -42.93485 17378 ft 420 kts 28°
2026-05-03 21:51 -22.11099 -42.91750 17861 ft 424 kts 31°
2026-05-03 21:51 -22.08623 -42.89982 18404 ft 429 kts 31°
2026-05-03 21:51 -22.06108 -42.88214 18922 ft 433 kts 30°
2026-05-03 21:51 -22.03565 -42.86436 19498 ft 435 kts 30°
2026-05-03 21:52 -22.01011 -42.84659 20065 ft 439 kts 30°
2026-05-03 21:52 -21.98438 -42.82873 20602 ft 443 kts 30°
2026-05-03 21:52 -21.95823 -42.81062 21156 ft 447 kts 29°
2026-05-03 21:52 -21.93202 -42.79250 21729 ft 451 kts 29°
2026-05-03 21:53 -21.90548 -42.77415 22268 ft 455 kts 29°
2026-05-03 21:53 -21.87877 -42.75567 22810 ft 459 kts 29°
2026-05-03 21:53 -21.85174 -42.73698 23295 ft 464 kts 29°
2026-05-03 21:53 -21.82447 -42.71813 23825 ft 467 kts 29°
2026-05-03 21:54 -21.79704 -42.69918 24233 ft 471 kts 28°
2026-05-03 21:54 -21.76931 -42.68005 24643 ft 475 kts 28°
2026-05-03 21:54 -21.74140 -42.66078 25084 ft 478 kts 28°
2026-05-03 21:54 -21.71336 -42.64141 25520 ft 480 kts 28°
2026-05-03 21:55 -21.68523 -42.62200 25998 ft 481 kts 28°
2026-05-03 21:55 -21.65698 -42.60254 26437 ft 484 kts 28°
2026-05-03 21:55 -21.62797 -42.58429 26784 ft 481 kts 18°
2026-05-03 21:55 -21.59634 -42.57387 27060 ft 471 kts
2026-05-03 21:56 -21.56404 -42.56670 27334 ft 475 kts
2026-05-03 21:56 -21.53154 -42.55961 27723 ft 478 kts
2026-05-03 21:56 -21.49900 -42.55230 28159 ft 479 kts
2026-05-03 21:56 -21.46633 -42.54468 28586 ft 480 kts
2026-05-03 21:57 -21.43359 -42.53683 28960 ft 482 kts
2026-05-03 21:57 -21.40083 -42.52883 29259 ft 485 kts
2026-05-03 21:57 -21.36778 -42.52068 29588 ft 488 kts
2026-05-03 21:57 -21.33461 -42.51247 29924 ft 490 kts
2026-05-03 21:58 -21.30132 -42.50423 30264 ft 492 kts
2026-05-03 21:58 -21.26802 -42.49600 30552 ft 493 kts
2026-05-03 21:58 -21.23454 -42.48773 30835 ft 493 kts
2026-05-03 21:58 -21.20104 -42.47950 31045 ft 495 kts
2026-05-03 21:59 -21.16739 -42.47123 31319 ft 496 kts
2026-05-03 21:59 -21.13366 -42.46292 31580 ft 496 kts
2026-05-03 21:59 -21.09995 -42.45462 31804 ft 497 kts
2026-05-03 21:59 -21.06621 -42.44632 32003 ft 498 kts
2026-05-03 22:00 -21.03241 -42.43803 32225 ft 499 kts
2026-05-03 22:00 -20.99852 -42.42971 32460 ft 499 kts
2026-05-03 22:00 -20.96477 -42.42127 32572 ft 498 kts
2026-05-03 22:00 -20.93090 -42.41297 32648 ft 500 kts
2026-05-03 22:01 -20.89693 -42.40474 32836 ft 500 kts
2026-05-03 22:01 -20.86305 -42.39645 33159 ft 498 kts
2026-05-03 22:01 -20.82937 -42.38827 33434 ft 496 kts
2026-05-03 22:01 -20.79581 -42.38007 33683 ft 495 kts
2026-05-03 22:02 -20.76220 -42.37186 33876 ft 495 kts
2026-05-03 22:02 -20.72863 -42.36365 34057 ft 496 kts
2026-05-03 22:02 -20.69544 -42.35553 34248 ft 495 kts
2026-05-03 22:02 -20.66191 -42.34733 34442 ft 495 kts
2026-05-03 22:03 -20.62828 -42.33908 34660 ft 494 kts
2026-05-03 22:03 -20.59473 -42.33091 34904 ft 492 kts
2026-05-03 22:03 -20.56133 -42.32277 35058 ft 493 kts
2026-05-03 22:03 -20.52784 -42.31468 35111 ft 494 kts
2026-05-03 22:04 -20.46073 -42.29873 35141 ft 493 kts
2026-05-03 22:04 -20.39388 -42.28290 35132 ft 489 kts
2026-05-03 22:05 -20.33872 -42.26985 35129 ft 488 kts
2026-05-03 22:05 -20.27231 -42.25414 35128 ft 489 kts
2026-05-03 22:06 -20.20566 -42.23836 35124 ft 491 kts
2026-05-03 22:06 -20.13892 -42.22255 35124 ft 492 kts
2026-05-03 22:07 -20.07191 -42.20671 35105 ft 494 kts
2026-05-03 22:07 -20.00531 -42.19031 35113 ft 494 kts
2026-05-03 22:08 -19.93800 -42.17271 35113 ft 495 kts
2026-05-03 22:08 -19.87154 -42.15534 35102 ft 494 kts
2026-05-03 22:09 -19.80479 -42.13808 35095 ft 493 kts
2026-05-03 22:10 -19.70463 -42.11324 35102 ft 492 kts
2026-05-03 22:10 -19.63760 -42.09832 35099 ft 492 kts